User: anonymous   Login
Location: Unspecified
(0.0000°N, 0.0000°E)
Time: 08:39:32
(UTC+00:00)
Language:

SJ 16-02 DEB - Orbit

View from above orbital plane
View from above orbital plane
View from above satellite
View from above satellite

Ground track
Ground track

The orbit data is extracted from the following two-line orbital elements,

1 43429U 16043D   20333.04510273  .00000444  00000-0  11653-3 0  9990
2 43429  74.9723 352.2774 0240760 184.0324 175.8904 14.35638422229316
Epoch (UTC): 28 November 2020 01:04:56
Eccentricity: 0.0240760
inclination: 74.9723°
perigee height: 601 km
apogee height: 945 km
right ascension of ascending node: 352.2774°
argument of perigee: 184.0324°
revolutions per day: 14.35638422
mean anomaly at epoch: 175.8904°
orbit number at epoch: 22931

The dashed part of the orbit path shows where the satellite is in the earth's shadow,  

DLR